Hourly Weather Mesolongi

Today, 25 September, Friday

Time Temperature Precipitation Wind Pressure Humidity
00:00 +21°C° 0 mm 2 mps 760 mmHg 82%
01:00 +21°C° 0 mm 2 mps 759 mmHg 82%
02:00 +22°C° 0 mm 1 mps 759 mmHg 82%
03:00 +21°C° 0 mm 1 mps 759 mmHg 81%
04:00 +21°C° 0 mm 1 mps 759 mmHg 81%
05:00 +22°C° 0 mm 1 mps 759 mmHg 78%
06:00 +23°C° 0 mm 1 mps 759 mmHg 74%
07:00 +24°C° 0 mm 1 mps 759 mmHg 71%
08:00 +25°C° 0 mm 1 mps 759 mmHg 64%
09:00 +27°C° 0 mm 1 mps 759 mmHg 57%
10:00 +29°C° 0 mm 2 mps 759 mmHg 50%
11:00 +30°C° 0 mm 2 mps 758 mmHg 49%
12:00 +30°C° 0 mm 3 mps 758 mmHg 48%
13:00 +31°C° 0 mm 3 mps 758 mmHg 46%
14:00 +30°C° 0 mm 3 mps 757 mmHg 50%
15:00 +29°C° 0 mm 4 mps 757 mmHg 53%
16:00 +28°C° 0 mm 4 mps 756 mmHg 57%
17:00 +27°C° 0 mm 4 mps 756 mmHg 65%
18:00 +26°C° 0 mm 3 mps 756 mmHg 72%
19:00 +24°C° 0 mm 3 mps 756 mmHg 80%
20:00 +24°C° 0 mm 3 mps 756 mmHg 79%
21:00 +24°C° 0 mm 3 mps 756 mmHg 78%
22:00 +24°C° 0 mm 3 mps 756 mmHg 77%
23:00 +24°C° 0.3 mm 3 mps 755 mmHg 78%

Tomorrow, 26 September, Saturday

Time Temperature Precipitation Wind Pressure Humidity
00:00 +24°C° 0.3 mm 3 mps 755 mmHg 79%
01:00 +24°C° 0.3 mm 2 mps 755 mmHg 81%
02:00 +23°C° 1.3 mm 2 mps 754 mmHg 84%
03:00 +23°C° 1.3 mm 2 mps 753 mmHg 87%
04:00 +21°C° 1.3 mm 2 mps 753 mmHg 90%
05:00 +22°C° 1.3 mm 3 mps 752 mmHg 89%
06:00 +22°C° 1.3 mm 3 mps 752 mmHg 88%
07:00 +22°C° 1.3 mm 3 mps 752 mmHg 86%
08:00 +23°C° 0.8 mm 4 mps 751 mmHg 82%
09:00 +26°C° 0.8 mm 5 mps 751 mmHg 77%
10:00 +27°C° 0.8 mm 6 mps 751 mmHg 73%
11:00 +26°C° 0.9 mm 6 mps 751 mmHg 75%
12:00 +24°C° 0.9 mm 6 mps 751 mmHg 77%
13:00 +23°C° 0.9 mm 6 mps 751 mmHg 79%
14:00 +23°C° 0.5 mm 6 mps 751 mmHg 79%
15:00 +22°C° 0.5 mm 6 mps 751 mmHg 79%
16:00 +21°C° 0.5 mm 6 mps 752 mmHg 79%
17:00 +20°C° 0.5 mm 6 mps 752 mmHg 80%
18:00 +20°C° 0.5 mm 5 mps 753 mmHg 80%
19:00 +19°C° 0.5 mm 5 mps 753 mmHg 80%
20:00 +19°C° 0.1 mm 5 mps 754 mmHg 79%
21:00 +19°C° 0.1 mm 4 mps 754 mmHg 77%
22:00 +19°C° 0.1 mm 4 mps 755 mmHg 76%
23:00 +18°C° 0 mm 4 mps 755 mmHg 77%

Day after tomorrow, 27 September, Sunday

Time Temperature Precipitation Wind Pressure Humidity
00:00 +18°C° 0 mm 3 mps 755 mmHg 77%
01:00 +18°C° 0 mm 3 mps 756 mmHg 78%
02:00 +18°C° 0 mm 2 mps 756 mmHg 78%
03:00 +18°C° 0 mm 2 mps 756 mmHg 78%
04:00 +19°C° 0 mm 1 mps 756 mmHg 78%
05:00 +18°C° 0 mm 2 mps 756 mmHg 77%
06:00 +19°C° 0 mm 2 mps 757 mmHg 75%
07:00 +20°C° 0 mm 2 mps 757 mmHg 74%
08:00 +21°C° 0.1 mm 3 mps 757 mmHg 70%
09:00 +22°C° 0.1 mm 3 mps 758 mmHg 65%
10:00 +23°C° 0.1 mm 4 mps 758 mmHg 61%
11:00 +25°C° 0.2 mm 4 mps 758 mmHg 61%
12:00 +25°C° 0.2 mm 4 mps 759 mmHg 61%
13:00 +25°C° 0.2 mm 5 mps 759 mmHg 61%
14:00 +25°C° 0.1 mm 4 mps 759 mmHg 62%
15:00 +23°C° 0.1 mm 4 mps 759 mmHg 63%
16:00 +24°C° 0.1 mm 3 mps 759 mmHg 64%
17:00 +22°C° 0 mm 3 mps 759 mmHg 69%
18:00 +21°C° 0 mm 2 mps 760 mmHg 75%
19:00 +21°C° 0 mm 1 mps 760 mmHg 80%
20:00 +19°C° 0 mm 2 mps 760 mmHg 80%
21:00 +19°C° 0 mm 2 mps 761 mmHg 81%
22:00 +19°C° 0 mm 2 mps 761 mmHg 82%
23:00 +19°C° 0 mm 2 mps 761 mmHg 82%

28 September, Monday

Time Temperature Precipitation Wind Pressure Humidity
00:00 +19°C° 0 mm 2 mps 761 mmHg 83%
01:00 +18°C° 0 mm 2 mps 761 mmHg 83%
02:00 +18°C° 0 mm 2 mps 761 mmHg 83%
03:00 +18°C° 0 mm 2 mps 761 mmHg 82%
04:00 +18°C° 0 mm 2 mps 761 mmHg 82%
05:00 +19°C° 0 mm 2 mps 761 mmHg 79%
06:00 +20°C° 0 mm 2 mps 761 mmHg 76%
07:00 +20°C° 0 mm 2 mps 761 mmHg 73%
08:00 +23°C° 0 mm 2 mps 761 mmHg 66%
09:00 +25°C° 0 mm 3 mps 761 mmHg 60%
10:00 +26°C° 0 mm 3 mps 761 mmHg 53%
11:00 +27°C° 0 mm 4 mps 761 mmHg 54%
12:00 +27°C° 0 mm 5 mps 760 mmHg 56%
13:00 +27°C° 0 mm 6 mps 760 mmHg 57%
14:00 +26°C° 0.2 mm 5 mps 760 mmHg 63%
15:00 +26°C° 0.2 mm 4 mps 759 mmHg 69%
16:00 +25°C° 0.2 mm 4 mps 759 mmHg 76%
17:00 +24°C° 2.5 mm 3 mps 759 mmHg 82%
18:00 +22°C° 2.5 mm 3 mps 759 mmHg 88%
19:00 +21°C° 2.5 mm 3 mps 759 mmHg 94%
20:00 +21°C° 0.8 mm 2 mps 759 mmHg 94%
21:00 +21°C° 0.8 mm 2 mps 759 mmHg 95%
22:00 +21°C° 0.8 mm 2 mps 759 mmHg 95%
23:00 +21°C° 0.5 mm 2 mps 759 mmHg 93%

29 September, Tuesday

Time Temperature Precipitation Wind Pressure Humidity
00:00 +20°C° 0.5 mm 2 mps 759 mmHg 91%
01:00 +20°C° 0.5 mm 2 mps 759 mmHg 90%
02:00 +20°C° 0.2 mm 2 mps 759 mmHg 89%
03:00 +19°C° 0.2 mm 3 mps 759 mmHg 88%
04:00 +19°C° 0.2 mm 3 mps 760 mmHg 87%
05:00 +20°C° 0 mm 3 mps 760 mmHg 85%
06:00 +20°C° 0 mm 3 mps 760 mmHg 84%
07:00 +21°C° 0 mm 3 mps 761 mmHg 82%
08:00 +22°C° 0 mm 3 mps 761 mmHg 75%
09:00 +23°C° 0 mm 4 mps 761 mmHg 67%
10:00 +25°C° 0 mm 4 mps 761 mmHg 60%
11:00 +26°C° 0 mm 5 mps 761 mmHg 57%
12:00 +26°C° 0 mm 5 mps 761 mmHg 55%
13:00 +27°C° 0 mm 5 mps 761 mmHg 52%
14:00 +26°C° 0 mm 5 mps 761 mmHg 55%
15:00 +25°C° 0 mm 5 mps 761 mmHg 59%
16:00 +25°C° 0 mm 5 mps 761 mmHg 62%
17:00 +23°C° 0 mm 5 mps 761 mmHg 68%
18:00 +21°C° 0 mm 4 mps 761 mmHg 75%
19:00 +20°C° 0 mm 3 mps 761 mmHg 81%
20:00 +20°C° 0 mm 3 mps 761 mmHg 82%
21:00 +19°C° 0 mm 2 mps 761 mmHg 83%
22:00 +19°C° 0 mm 2 mps 761 mmHg 84%
23:00 +19°C° 0 mm 2 mps 761 mmHg 84%

30 September, Wednesday

Time Temperature Precipitation Wind Pressure Humidity
00:00 +20°C° 0 mm 1 mps 761 mmHg 84%
01:00 +19°C° 0 mm 1 mps 761 mmHg 83%
02:00 +19°C° 0 mm 1 mps 761 mmHg 83%
03:00 +19°C° 0 mm 1 mps 760 mmHg 82%
04:00 +19°C° 0 mm 1 mps 760 mmHg 82%
05:00 +20°C° 0 mm 1 mps 760 mmHg 78%
06:00 +20°C° 0 mm 1 mps 760 mmHg 74%
07:00 +21°C° 0 mm 1 mps 760 mmHg 71%
08:00 +23°C° 0 mm 1 mps 760 mmHg 65%
09:00 +25°C° 0 mm 1 mps 760 mmHg 59%
10:00 +27°C° 0 mm 1 mps 760 mmHg 53%
11:00 +27°C° 0 mm 1 mps 759 mmHg 51%
12:00 +27°C° 0 mm 2 mps 759 mmHg 50%
13:00 +28°C° 0 mm 3 mps 759 mmHg 49%
14:00 +27°C° 0 mm 3 mps 758 mmHg 52%
15:00 +26°C° 0 mm 3 mps 758 mmHg 54%
16:00 +25°C° 0 mm 3 mps 758 mmHg 57%
17:00 +24°C° 0 mm 3 mps 758 mmHg 62%
18:00 +22°C° 0 mm 3 mps 758 mmHg 68%
19:00 +20°C° 0 mm 2 mps 758 mmHg 73%
20:00 +20°C° 0 mm 2 mps 758 mmHg 74%
21:00 +19°C° 0 mm 2 mps 758 mmHg 75%
22:00 +19°C° 0 mm 2 mps 758 mmHg 75%
23:00 +19°C° 0 mm 2 mps 758 mmHg 75%
Show more